Tracking 20724 objects as of 3-Jun-2020
HD Live streaming from Space Station
objects crossing your sky now

STARLINK-1348

Track STARLINK-1348 now!
10-day predictions
STARLINK-1348 is classified as:


NORAD ID: 45561
Int'l Code: 2020-025AG
Perigee: 386.1 km
Apogee: 387.8 km
Inclination: 53.0 °
Period: 92.1 minutes
Semi major axis: 6757 km
RCS: Unknown
Launch date: April 22, 2020
Source: United States (US)
Launch site: AIR FORCE EASTERN TEST RANGE (AFETR)
aabbcc
Your satellite tracking list
Your tracking list is empty




NASA's NSSDC Master Catalog

Two Line Element Set (TLE):
1 45561U 20025AG  20155.16667824  .00008788  00000-0  10185-3 0  9992
2 45561  52.9999 195.6376 0001293  91.9406  12.7709 15.62715974  7197
Source of the keplerian elements: AFSPC